sat.trackr.live / text

‹ back to catalog

COSMOS 2581

NORAD 62902 · 2025-026A

PAYLOAD ACTIVE UNKNOWN

§ Identity

Operator
Country
CIS
Launch date
2025-02-05
Launch site
PLMSC
Launch vehicle
Mass (kg)
RCS (m²)

External: N2YO · Heavens-Above · Gunter

§ Orbital elements

Epoch: 2026-09-22T17:36:40.854816Z

Period
96.31 min
Inclination
81.9981°
Eccentricity
0.0011527
Mean motion
14.95183155 rev/d
Perigee alt
573.8 km
Apogee alt
589.8 km
Semi-major
6,959.9 km
B*
6.7343e-5
RAAN
334.9513°
Arg perigee
93.5314°
Mean anomaly
266.7225°
Rev number
8,879

§ Raw data

COSMOS 25811 62902U 25026A   26265.73380619  .00000765  00000+0  67343-4 0  99962 62902  81.9981 334.9513 0011527  93.5314 266.7225 14.95183155 88790

JSON: /api/v1/satellites/62902 · /tle

For live sub-satellite position, see the globe view (requires WebGL).

§ Visibility from observer

Set your observer location to see the next 7 days of passes ≥ 10°. The values pass through the URL so the page stays shareable.

No JS? Fill the form by hand. The geolocation button needs JavaScript.

§ Radio — SatNOGS DB

ModeDescriptionDownlinkUplink
FM S-band telemetry 2.284 GHz

1 transmitter · refreshed weekly from db.satnogs.org